STARLINK-32636, 62232

Orbit data source: Space-Track

STARLINK-32636, 62232 is a payload satellite owned by SpaceX/Seattle (US) in LEO that was launched on Thu, 05 Dec 2024 UTC via an FALCON 9 launch vehicle from the Air Force Western Test Range (AFWTR). Payloads include a variety of satellites, spacecraft, and rockets equipped with specific instruments for various scientific and technological missions. These include communications satellites like Starlink; space stations such as the ISS; scientific satellites like the Hubble; Earth observation satellites from companies like Planet Labs, Umbra, and HawkEye 360; GPS; miniature CubeSats for education and research; and military/defense satellites.

Loading next visibility...
STARLINK-32636 details
Identifier
62232, 2024-231Q
Orbit
LEO
Last TLE update16 hours ago
Origin
Flag of USSpaceX/Seattle (US)
ManufacturerSpaceX/Seattle
MissionOperational spacecraft
Bus & MotorSTARLINK V2M, Unknown motor
Mass730 kg wet, ~700 kg dry
Launch date (UTC)
2024-12-05 (2 months ago)
Launch vehicle
FALCON 9
Launch site
Air Force Western Test Range (AFWTR)
Object type
Payload
Rocket body
Debris
Shape & HBRUnknown
Radar Cross SectionLarge (>1 m²)

Expand to show TLE details & history

TLE from 16 hours ago
0 STARLINK-32636
1 62232U 24231Q   25025.20712762 -.00000507  00000-0 -26922-5 0  9998
2 62232  53.1611 322.2715 0000956  89.6499 270.4616 15.39602564  9096
Epoch: 2025-01-25T04:58Z
Definitive object data (Epoch: 2025-01-25T04:58:15.826Z)
Latitude0.00003°
Longitude122.94632°
Altitude448.182 km
Speed7.645 km/s
True Right ascension21h 29m 05s
True Declination0° 00' 00"
Sunlit
Object was in daylight at TLE epoch
Visualization TLE readout
Latitude43.70223°
Longitude165.23358°
Altitude451.124 km
Speed7.648 km/s
Apparent Right ascension05h 10m 13s
Apparent Declination12° 54' 48"
Sunlit
Object is in daylight
Visualization observer readout
Local Sidereal Time22:09:36
Azimuth70.407° E
Elevation-2.981°
Doppler factor1
Orbital elements
Apogee altitude448.193 km
Perigee altitude446.888 km
Semi-major axis6,825.678 km
Eccentricity0.0000956
Inclination53.1611°
RAAN322.2715°
Arg. of periapsis89.6499°
True anomaly270.45065°
Mean anomaly270.4616°
Eccentric anomaly270.45612°
Mean motion3.84879 °/min
BSTAR-0.0000026922
Orbital period93.54 mins
Loading maneuver chart data...
Loading historical data...
Loading historical data...
Loading historical data...
Loading historical data...
Loading historical data...
Loading historical data...
Loading historical data...

STARLINK-32636 Visibility forecast

Observer location: undefined°, undefined

Span
Click to sort rows by Start time (UTC) header in descending order
Start Az.
Max El. time (UTC)
Max El. Az.
Max El.
End time (UTC)
End Az.
6 mins2025-01-25 22:17:26.978Z221.153° SW2025-01-25 22:20:26.978Z80.075° E41.254°2025-01-25 22:23:26.978Z53.316° ENE
5 mins2025-01-26 04:50:26.978Z323.74° NNW2025-01-26 04:52:26.978Z30.565° NE40.05°2025-01-26 04:55:26.978Z115.328° SE
|